Location: Gudip?du
(17.0263°N, 80.8301°E)
Time: 06:25:50
(UTC+00:00)

Cosmos 1953 - Pass Details

Date: 03 August 2024
Orbit: 505 x 524 km, 82.5° (Epoch: 10 September)

Event Time Altitude Azimuth Distance (km) Brightness Sun altitude
Exits shadow 23:39:40 - 215° (SW) 1,856 4.5 -9.3°
Reaches altitude 10° 23:40:04 10° 219° (SW) 1,709 4.3 -9.2°
Maximum altitude 23:43:15 26° 277° (W) 1,018 3.2 -8.5°
Drops below altitude 10° 23:46:26 10° 335° (NNW) 1,716 4.8 -7.8°
Sets 23:48:49 0° 348° (NNW) 2,605 5.9 -7.3°
